This demonstration page uses our WeatherBlox Daily Observations layout. Learn more.

41.86663, -103.66717

Hourly Observations for January 10, 2020

Temp ( °F °C ) Dew Point ( °F °C ) Humidity (%) Winds ( mph kmh ) Pressure ( in mb ) Visibility ( mi km ) Precip ( " mm )
12:19 am 00:19 Cloudy with Light Snow 34 1.1 29 -1.7 82 82 SW 13 20 29.96 1015 3 4.82802 0.001 0.001
12:22 am 00:22 Cloudy with Light Snow 34 1.1 30 -1.1 85 85 SSW 10 17 29.96 1015 1.75 2.816345 0.001 0.001
12:33 am 00:33 Cloudy with Light Snow 33 0.6 31 -0.6 92 92 S 8 13 29.97 1015 3 4.82802 0.001 0.001
12:53 am 00:53 Cloudy with Light Snow 33 0.6 31 -0.6 92 92 S 9 15 29.89 1012 4 6.43736 0.001 0.001
1:00 am 01:00 Cloudy with Light Snow 32 0 31 -0.6 96 96 S 9 15 29.98 1015 6 9.65604 0.01 0.254
1:53 am 01:53 Cloudy with Light Snow 33 0.6 32 0 96 96 S 12 19 29.9 1013 4 6.43736 0.01 0.254
2:53 am 02:53 Cloudy 32 0 32 0 100 100 SSE 9 15 29.91 1013 10 16.0934 0.001 0.001
3:06 am 03:06 Cloudy 32 0 32 0 100 100 Calm 30 1016 9 14.48406 0 0
3:19 am 03:19 Mostly Cloudy with Mist and Fog 32 0 31 -0.6 96 96 SSE 5 7 30 1016 2.5 4.02335 0 0
3:26 am 03:26 Mostly Cloudy with Mist and Fog 31 -0.6 31 -0.6 100 100 SSE 7 11 30.01 1016 0.75 1.207005 0 0
3:44 am 03:44 Mostly Cloudy with Freezing Fog 30 -1 30 -1 100 100 SE 5 7 30.02 1016 0.25 0.402335 0 0
3:53 am 03:53 Mostly Cloudy with Freezing Fog 31 -0.6 31 -0.6 100 100 SE 5 7 29.93 1013 0.25 0.402335 0 0
4:53 am 04:53 Mostly Cloudy with Freezing Fog 29 -1.7 29 -1.7 100 100 SE 5 7 29.97 1015 0.25 0.402335 0 0
5:31 am 05:31 Mostly Cloudy with Mist and Fog 25 -3.9 24 -4.4 96 96 Calm 30.09 1019 1 1.60934 0 0
5:42 am 05:42 Partly Cloudy with Mist and Fog 23 -5 22 -5.6 96 96 N 5 7 30.12 1020 1.25 2.011675 0 0
5:53 am 05:53 Mostly Clear with Mist and Fog 23 -5 22 -5.6 96 96 N 3 6 30.03 1017 2.5 4.02335 0 0
6:00 am 06:00 Mostly Clear 23 -5 22 -5.6 96 96 NNW 5 7 30.14 1021 7 11.26538 0 0
6:08 am 06:08 Mostly Clear with Mist and Fog 22 -5.6 21 -6.1 96 96 N 7 11 30.16 1021 1.25 2.011675 0 0
6:10 am 06:10 Mostly Cloudy with Mist and Fog 23 -5 21 -6 93 93 N 7 11 30.15 1021 0.75 1.207005 0 0
6:23 am 06:23 Partly Cloudy with Mist and Fog 24 -4.4 23 -5 96 96 N 13 20 30.16 1021 1.5 2.41401 0 0
6:25 am 06:25 Partly Cloudy with Mist and Fog 24 -4.4 23 -5 96 96 N 15 24 30.16 1021 4 6.43736 0 0
6:35 am 06:35 Mostly Cloudy 24 -4.4 23 -5 96 96 NNE 24 39 30.17 1022 10 16.0934 0 0
6:53 am 06:53 Cloudy 21 -6.1 19 -7.2 92 92 NNE 24 39 30.11 1020 9 14.48406 0 0
7:53 am 07:53 Cloudy 18 -7.8 16 -8.9 92 92 NNE 22 35 30.21 1023 9 14.48406 0 0
8:09 am 08:09 Windy with Snow Likely 17 -8.3 14 -10 88 88 NNE 23 37 30.35 1028 8 12.87472 0.001 0.001
8:36 am 08:36 Cloudy with Light Snow 16 -8.9 13 -10.6 88 88 NNE 16 26 30.39 1029 8 12.87472 0.001 0.001
8:53 am 08:53 Cloudy with Light Snow 16 -8.9 12 -11.1 84 84 NNE 18 30 30.27 1025 5 8.0467 0.001 0.001
9:53 am 09:53 Cloudy with Light Snow 16 -8.9 11 -11.7 80 80 NNE 10 17 30.32 1027 3 4.82802 0.001 0.001
10:05 am 10:05 Cloudy with Light Snow 16 -8.9 12 -11.1 84 84 N 10 17 30.47 1032 2 3.21868 0.001 0.001
10:45 am 10:45 Cloudy with Light Snow 17 -8.3 12 -11.1 80 80 N 9 15 30.47 1032 4 6.43736 0.001 0.001
10:53 am 10:53 Cloudy with Light Snow 17 -8.3 12 -11.1 80 80 N 9 15 30.32 1027 3 4.82802 0.001 0.001
11:53 am 11:53 Cloudy 18 -7.8 12 -11.1 77 77 N 6 9 30.3 1026 10 16.0934 0.001 0.001
12:35 pm 12:35 Cloudy 19 -7.2 12 -11.1 74 74 NNW 10 17 30.42 1030 10 16.0934 0.001 0.001
12:43 pm 12:43 Cloudy 19 -7.2 13 -10.6 77 77 NNW 12 19 30.42 1030 10 16.0934 0.001 0.001
12:50 pm 12:50 Cloudy 19 -7 12 -11 73 73 NNW 10 17 30.41 1030 10 16.0934 0.001 0.001
12:53 pm 12:53 Cloudy 19 -7.2 12 -11.1 74 74 N 10 17 30.29 1026 10 16.0934 0.001 0.001
1:53 pm 13:53 Mostly Sunny 21 -6.1 12 -11.1 68 68 NNW 9 15 30.27 1025 10 16.0934 0 0
2:53 pm 14:53 Sunny 23 -5 12 -11.1 63 63 NW 12 19 30.27 1025 10 16.0934 0 0
3:53 pm 15:53 Sunny 23 -5 11 -11.7 60 60 N 8 13 30.28 1025 10 16.0934 0 0
4:53 pm 16:53 Clear 20 -6.7 11 -11.7 68 68 Calm 30.29 1026 10 16.0934 0 0
5:53 pm 17:53 Clear 13 -10.6 8 -13.3 81 81 ESE 5 7 30.33 1027 10 16.0934 0 0
6:53 pm 18:53 Clear 9 -12.8 6 -14.4 88 88 E 6 9 30.33 1027 10 16.0934 0 0
7:53 pm 19:53 Clear 8 -13.3 4 -15.6 83 83 E 3 6 30.33 1027 10 16.0934 0 0
8:53 pm 20:53 Clear 8 -13.3 5 -15 87 87 ENE 6 9 30.31 1026 10 16.0934 0 0
9:53 pm 21:53 Clear 8 -13.3 5 -15 87 87 E 7 11 30.3 1026 10 16.0934 0 0
10:53 pm 22:53 Clear 6 -14.4 3 -16.1 87 87 ESE 10 17 30.29 1026 10 16.0934 0 0
11:53 pm 23:53 Clear 6 -14.4 3 -16.1 87 87 ESE 8 13 30.25 1025 10 16.0934 0 0

Powered by AerisWeather